[[{"header":{"parameterUnit":"m.s-1","parameterCategory":1,"la1":30.2991,"la2":30.254,"lo1":-89.0895,"lo2":-89.0444,"dx":0.0017,"dy":0.0017,"nx":28,"ny":28,"refTime":"2022-12-29T09:00:00:Z","depth":0,"parameterNumber":2,"parameterNumberName":"U-component_of_WINDS"},"data":[0,0,0,0,0,0,0,0,0,0,0,0,0,0,0,0,0,0,0,0,0,0,0,0,0,0,0,0,0,0,0,0,0,0,0,0,0,0,0,0,0,0,0,0,0,0,0,0,0,0,0,0,0,0,0,0,0,0,0.758,0.7571,0,0.6737,0.6727,0.6718,0.6247,0.6245,0.6244,0.6243,0.5389,0.5368,0.5347,0,0,0,0,0,0,0,0,0,0,0,0,0,0.8795,0.8775,0.7581,0.7571,0.756,0.6738,0.6727,0.6715,0.6247,0.6245,0.6244,0.6242,0.5396,0.5371,0.5345,0,0,0,0,0,0,0,0,0,0,0,0,0,0.8142,0.8769,0.7583,0.7227,0.7187,0.6741,0.6726,0.6712,0.6248,0.6245,0.6243,0.6241,0.5404,0.5373,0.5342,0.5187,0,0,0.5244,0.523,0,0,0,0,0,0,0,0,0.818,0.8098,0.729,0.7251,0.7205,0.6594,0.6841,0.6201,0.6248,0.6605,0.6243,0.624,0.5793,0.5729,0.5575,0.5147,0.5111,0.5241,0.5221,0.5208,0.5199,0,0,0,0,0,0,0,0.8226,0.8132,0.7247,0.7279,0.7227,0.7112,0.7017,0.6718,0.6222,0.6573,0.6537,0.6443,0.5769,0.5608,0.5552,0.5098,0.5242,0.5213,0.5193,0.5181,0.4501,0.4502,0,0,0,0,0,0,0.8327,0.8173,0.7274,0.7222,0.7696,0.7092,0.6986,0.6793,0.6223,0.6134,0.6446,0.6424,0.5663,0.559,0.552,0.53,0.5208,0.5178,0.5159,0.4499,0.4501,0.4502,0,0,0,0,0,0,0.8354,0.8251,0.7308,0.7687,0.7558,0.7074,0.6861,0.6778,0.6615,0.6127,0.6037,0.6371,0.5659,0.5565,0.5272,0.5264,0.5163,0.5134,0.4498,0.45,0.4501,0.4863,0,0,0,0,0,0,0.8391,0.8264,0.8198,0.7689,0.754,0.7073,0.686,0.6763,0.656,0.6524,0.6033,0.595,0.565,0.5323,0.5241,0.5218,0.5109,0.4497,0.4499,0.4501,0.4849,0.4877,0.49,0,0,0,0,0,0.8436,0.8336,0.8197,0.8092,0.7447,0.7074,0.6988,0.6642,0.6561,0.6492,0.6178,0.5965,0.5279,0.5297,0.52,0.5169,0.4496,0.4498,0.4501,0.4838,0.4871,0.4899,0,0,0,0,0,0,0.8861,0.8263,0.8102,0.7833,0.7508,0.6995,0.6897,0.6689,0.6381,0.6361,0.5947,0.5841,0.5588,0.5348,0.5379,0.4989,0.4864,0.4848,0.5154,0.5181,0.5207,0.5269,0.5083,0,0,0,0,0,0.8923,0.8666,0.8159,0.7971,0.7815,0.7386,0.721,0.6971,0.6618,0.6479,0.6143,0.5812,0.552,0.5338,0.5043,0.4813,0.4699,0.4743,0.4769,0.4792,0.4783,0.4642,0.4656,0.4511,0.4511,0.451,0,0,0.9049,0.869,0.8554,0.8047,0.7766,0.7512,0.7273,0.7015,0.6823,0.644,0.6142,0.5886,0.5488,0.5227,0.5094,0.5019,0.4798,0.4795,0.4818,0.4794,0.4647,0.4661,0.4674,0.4512,0.4512,0.4512,0,0,0.9148,0.8852,0.8661,0.8384,0.7961,0.7675,0.7632,0.7148,0.6962,0.6655,0.6363,0.6131,0.5638,0.5366,0.5164,0.5162,0.4954,0.5078,0.521,0.5078,0.509,0.5098,0.5096,0.5101,0.507,0.5071,0.5071,0,0.9359,0.8961,0.8591,0.8347,0.8134,0.7773,0.7578,0.7329,0.6834,0.6696,0.6618,0.599,0.5698,0.5367,0.5366,0.5215,0.5152,0.5131,0.5117,0.5122,0.5124,0.5118,0.5119,0.5089,0.5087,0.5085,0.5083,0,0.9242,0.8972,0.8869,0.8395,0.817,0.7954,0.7553,0.737,0.7152,0.6876,0.657,0.6205,0.583,0.5734,0.552,0.5373,0.5339,0.5196,0.5062,0.5162,0.5149,0.5144,0.5114,0.5108,0.5102,0.5098,0,0,0.9585,0.8908,0.8877,0.8657,0.8163,0.7948,0.7717,0.7345,0.7197,0.6868,0.6664,0.6255,0.6118,0.589,0.5641,0.5527,0.5547,0.5394,0.5379,0.5436,0.5362,0.5474,0.5477,0.5407,0.5405,0.5403,0.5396,0,0.9613,0.9175,0.8835,0.8526,0.8272,0.7926,0.7723,0.7401,0.7138,0.6886,0.6596,0.6312,0.6153,0.6013,0.5883,0.5573,0.5527,0.5568,0.5215,0.5207,0.5325,0.547,0.5586,0.5596,0.5388,0.5387,0.5386,0,0.9586,0.9266,0.8933,0.8464,0.8344,0.8169,0.7801,0.7564,0.7192,0.7008,0.6754,0.6496,0.6238,0.6131,0.577,0.5807,0.5642,0.5468,0.546,0.5413,0.5303,0.5427,0.5591,0.5593,0.5375,0.5376,0.5377,0,0.9871,0.9356,0.9088,0.8912,0.8359,0.8243,0.8009,0.7633,0.7432,0.7112,0.6978,0.6635,0.6448,0.619,0.5847,0.5801,0.5523,0.5387,0.5365,0.5374,0.5321,0.5329,0.5461,0.5219,0.5219,0.5219,0.5219,0,0.9937,0.9747,0.9208,0.9045,0.8821,0.8433,0.8224,0.7959,0.7629,0.7409,0.709,0.6892,0.6452,0.6201,0.5932,0.5675,0.5593,0.5439,0.537,0.5467,0.5487,0.5353,0.5344,0.5219,0.5219,0.5219,0.5219,0,1.0216,0.9847,0.9533,0.9035,0.8905,0.8763,0.8336,0.8166,0.7885,0.7611,0.7525,0.7085,0.6773,0.6406,0.5976,0.5795,0.556,0.5458,0.5686,0.5645,0.5643,0.5649,0.5693,0.5679,0.5452,0.5454,0.5457,0,1.0282,1.0126,0.961,0.9438,0.9211,0.894,0.8731,0.8344,0.8142,0.7705,0.7588,0.7251,0.696,0.6479,0.6124,0.5793,0.568,0.5718,0.5628,0.573,0.5679,0.5693,0.5675,0.5743,0.5748,0.5751,0.5754,0,1.0439,1.0264,0.9975,0.9622,0.9382,0.9086,0.8777,0.8656,0.8207,0.7996,0.767,0.7446,0.7004,0.6674,0.6298,0.6058,0.5833,0.5785,0.5762,0.5859,0.5997,0.5922,0.5751,0.5786,0.5783,0.578,0.5779,0.5777,1.0611,1.0457,1.0069,0.9757,0.9483,0.9202,0.9016,0.8711,0.8432,0.804,0.7829,0.751,0.7141,0.6612,0.638,0.6126,0.6048,0.6016,0.6007,0.6005,0.6033,0.6039,0.6057,0.6055,0.6054,0.6053,0.6052,0,1.0751,1.0484,1.0201,0.9777,0.9533,0.9337,0.8986,0.8795,0.8516,0.819,0.7909,0.7537,0.7215,0.6834,0.6488,0.6359,0.6246,0.6281,0.6286,0.6235,0.6123,0.6177,0.6377,0.6377,0.6377,0.6377,0.6377,0.6377,1.0796,1.0523,1.0303,0.9892,0.9625,0.9306,0.9122,0.8862,0.8598,0.8195,0.7925,0.7677,0.7328,0.6954,0.6651,0.6547,0.6435,0.6501,0.6368,0.6271,0.6243,0.6216,0.6264,0.648,0.648,0.6499,0.6499,0.65]},{"header":{"parameterUnit":"m.s-1","parameterCategory":1,"la1":30.2991,"la2":30.254,"lo1":-89.0895,"lo2":-89.0444,"dx":0.0017,"dy":0.0017,"nx":28,"ny":28,"refTime":"2022-12-29T09:00:00:Z","depth":0,"parameterNumber":3,"parameterNumberName":"V-component_of_WINDS"},"data":[0,0,0,0,0,0,0,0,0,0,0,0,0,0,0,0,0,0,0,0,0,0,0,0,0,0,0,0,0,0,0,0,0,0,0,0,0,0,0,0,0,0,0,0,0,0,0,0,0,0,0,0,0,0,0,0,0,0,5.2167,5.2171,0,5.253,5.2534,5.2538,5.2678,5.2677,5.2676,5.2675,5.3031,5.3041,5.3052,0,0,0,0,0,0,0,0,0,0,0,0,0,5.1579,5.1589,5.2166,5.2171,5.2175,5.2529,5.2534,5.2539,5.2678,5.2677,5.2676,5.2674,5.3028,5.304,5.3053,0,0,0,0,0,0,0,0,0,0,0,0,0,5.1877,5.1592,5.2165,5.2288,5.2302,5.2528,5.2535,5.2541,5.2678,5.2677,5.2675,5.2674,5.3024,5.3039,5.3054,5.3181,0,0,5.3102,5.3109,0,0,0,0,0,0,0,0,5.186,5.1898,5.2265,5.228,5.2297,5.2558,5.2458,5.2755,5.2679,5.2535,5.2675,5.2673,5.2874,5.2902,5.2973,5.3197,5.3213,5.3103,5.3113,5.312,5.3124,0,0,0,0,0,0,0,5.1839,5.1883,5.231,5.227,5.2289,5.232,5.2361,5.2515,5.2708,5.2547,5.2559,5.26,5.2882,5.2957,5.2982,5.3218,5.3103,5.3117,5.3126,5.3133,5.3567,5.3569,0,0,0,0,0,0,5.18,5.1865,5.2298,5.2321,5.2071,5.2332,5.2377,5.2475,5.2707,5.2741,5.2601,5.2606,5.2931,5.2963,5.2995,5.3162,5.3119,5.3134,5.3143,5.3565,5.3568,5.357,0,0,0,0,0,0,5.1787,5.1837,5.2284,5.2096,5.2156,5.2344,5.2452,5.2483,5.2559,5.2748,5.2781,5.2644,5.2931,5.2973,5.3135,5.3176,5.3141,5.3155,5.3563,5.3566,5.3569,5.3493,0,0,0,0,0,0,5.177,5.1832,5.1885,5.2097,5.2165,5.2422,5.2454,5.2491,5.2587,5.2596,5.2796,5.2828,5.2933,5.3111,5.3151,5.3197,5.3168,5.356,5.3564,5.3568,5.3493,5.3493,5.3494,0,0,0,0,0,5.1748,5.1845,5.1887,5.1938,5.2236,5.2424,5.2462,5.2586,5.259,5.2643,5.2765,5.2822,5.3164,5.3127,5.3172,5.3223,5.3558,5.3563,5.3568,5.3492,5.3493,5.3494,0,0,0,0,0,0,5.1626,5.1874,5.1924,5.2093,5.2237,5.2447,5.2518,5.2582,5.2724,5.2726,5.2868,5.2912,5.3064,5.3159,5.3113,5.3359,5.3365,5.3379,5.3292,5.3294,5.3294,5.3269,5.3181,0,0,0,0,0,5.162,5.1757,5.1964,5.2092,5.2163,5.2328,5.2414,5.2498,5.265,5.271,5.2844,5.2985,5.3126,5.3215,5.3354,5.3506,5.3552,5.3564,5.3564,5.3563,5.3574,5.3665,5.3673,5.3586,5.3586,5.3586,0,0,5.1606,5.1759,5.1835,5.2072,5.2194,5.2329,5.2378,5.2517,5.2618,5.273,5.2895,5.2996,5.3164,5.3323,5.3399,5.3407,5.3609,5.357,5.3568,5.358,5.367,5.3678,5.3686,5.359,5.3589,5.3588,0,0,5.1652,5.1781,5.1905,5.2027,5.2213,5.2323,5.2351,5.2554,5.2628,5.2796,5.2884,5.3002,5.324,5.3358,5.3448,5.3541,5.3599,5.3581,5.3584,5.367,5.3677,5.3684,5.3719,5.373,5.3591,5.3591,5.3591,0,5.161,5.1823,5.1958,5.2097,5.2198,5.2311,5.2436,5.2546,5.2764,5.283,5.2837,5.3141,5.3261,5.3451,5.3474,5.3542,5.3579,5.356,5.3666,5.3674,5.3682,5.3717,5.373,5.3588,5.3588,5.3588,5.3589,0,5.1764,5.1909,5.1985,5.2203,5.2312,5.2441,5.2594,5.2687,5.2761,5.2869,5.3038,5.3187,5.336,5.341,5.3481,5.361,5.361,5.3639,5.3648,5.3685,5.3721,5.3735,5.3583,5.3584,5.3585,5.3586,0,0,5.1741,5.2036,5.2061,5.2163,5.2377,5.249,5.2623,5.2799,5.2878,5.3024,5.314,5.334,5.337,5.3472,5.3557,5.3632,5.3699,5.3653,5.3659,5.3658,5.3853,5.3832,5.3845,5.3738,5.3741,5.3744,5.384,0,5.1818,5.207,5.2198,5.2393,5.2529,5.264,5.2757,5.2898,5.3002,5.313,5.3242,5.3383,5.3411,5.3474,5.3553,5.3674,5.374,5.3668,5.3845,5.385,5.3803,5.3864,5.3841,5.3925,5.3854,5.3857,5.3858,0,5.194,5.2094,5.2305,5.2508,5.257,5.2674,5.2846,5.2967,5.3129,5.32,5.3316,5.34,5.3542,5.354,5.3737,5.3686,5.3765,5.3834,5.3841,5.3863,5.3858,5.3889,5.3954,5.3967,5.3881,5.3879,5.3878,0,5.1906,5.2165,5.2327,5.2409,5.2649,5.2719,5.2821,5.2983,5.3081,5.3229,5.3295,5.3454,5.3542,5.3662,5.3786,5.3772,5.3971,5.3978,5.4032,5.4029,5.4071,5.4067,5.4151,5.4117,5.4117,5.4117,5.4116,0,5.1979,5.2104,5.2316,5.2415,5.2558,5.2701,5.2838,5.2947,5.3091,5.321,5.3312,5.342,5.3577,5.3704,5.3801,5.3951,5.3988,5.4047,5.4072,5.404,5.4033,5.4095,5.4093,5.412,5.4119,5.4119,5.4118,0,5.1966,5.2113,5.2297,5.2511,5.2567,5.2663,5.2844,5.2943,5.3053,5.3203,5.3246,5.3418,5.3573,5.3709,5.3912,5.3977,5.4132,5.416,5.4079,5.4093,5.414,5.4134,5.4269,5.4294,5.424,5.4241,5.4241,0,5.2004,5.2105,5.2332,5.2423,5.2525,5.2669,5.2772,5.2916,5.3018,5.3213,5.3287,5.3452,5.3592,5.3834,5.3974,5.413,5.4164,5.4201,5.4188,5.4154,5.4168,5.4161,5.4173,5.42,5.42,5.42,5.42,0,5.2057,5.2126,5.2274,5.2448,5.257,5.2712,5.2856,5.2923,5.3093,5.3202,5.3367,5.3476,5.3687,5.3849,5.4021,5.4121,5.4189,5.4203,5.4225,5.4194,5.4144,5.4175,5.4082,5.42,5.42,5.42,5.42,5.42,5.2073,5.2169,5.2345,5.2507,5.2633,5.2766,5.2871,5.2998,5.3139,5.3328,5.3402,5.357,5.373,5.397,5.407,5.4201,5.4211,5.4241,5.4249,5.4255,5.4251,5.4122,5.4231,5.4232,5.4232,5.4232,5.4232,0,5.2133,5.2253,5.2401,5.2605,5.2731,5.279,5.2954,5.3054,5.3203,5.335,5.3488,5.3677,5.3835,5.3988,5.4154,5.4229,5.4264,5.4267,5.4264,5.4286,5.423,5.4197,5.4236,5.4236,5.4236,5.4236,5.4236,5.4236,5.2179,5.2346,5.2436,5.2666,5.2784,5.2955,5.3044,5.3167,5.3286,5.3495,5.363,5.3731,5.3881,5.4058,5.4205,5.4246,5.4302,5.4298,5.4346,5.4292,5.429,5.4288,5.4257,5.4308,5.4308,5.4392,5.4393,5.4393]}]]